Tracking 32938 objects as of 13-Jan-2026
HD Live streaming from Space Station
objects crossing your sky now

STARLINK-32799

Track STARLINK-32799 now!
10-day predictions
STARLINK-32799 is classified as:


NORAD ID: 62847
Int'l Code: 2025-019U
Perigee: 489.1 km
Apogee: 491.3 km
Inclination: 43.0 °
Period: 94.3 minutes
Semi major axis: 6861 km
RCS: Unknown
Launch date: January 27, 2025
Source: United States (US)
Launch site: AIR FORCE EASTERN TEST RANGE (AFETR)
Your satellite tracking list
Your tracking list is empty




NASA's NSSDC Master Catalog

Two Line Element Set (TLE):
1 62847U 25019U   26012.39693542  .00024813  00000-0  90856-3 0  9995
2 62847  43.0023  46.7209 0001595 286.8401  73.2276 15.27565808 53640
Source of the keplerian elements: AFSPC